Location: Helsinki
(60.1699°N, 24.9384°E)
Time: 16:43:39
(UTC+02:00)

Vanguard 1 - Visible Passes

Search period start: 31 October 2020 00:00
Search period end: 10 November 2020 00:00
Orbit: 649 x 3833 km, 34.3° (Epoch: 30 October)

Date Brightness Start Highest point End Pass type
(mag) Time Alt. Az. Time Alt. Az. Time Alt. Az.
31 Oct 13.8 17:17:19 10° WSW 17:31:30 22° SW 17:42:42 10° S visible
01 Nov 14.0 17:38:44 10° WSW 17:51:19 19° SW 18:01:34 10° S visible
02 Nov 14.1 18:00:41 10° WSW 18:11:02 16° SW 18:19:48 10° SSW visible
03 Nov 14.2 18:23:51 10° WSW 18:30:36 12° SW 18:36:41 10° SSW visible
05 Nov 14.3 16:36:57 10° WSW 16:51:12 21° SW 17:03:32 10° S visible
06 Nov 14.4 16:58:44 10° WSW 17:10:56 18° SW 17:21:48 10° S visible
07 Nov 14.5 17:21:25 10° WSW 17:30:35 14° SW 17:39:01 10° SSW visible
08 Nov 14.7 17:47:29 10° WSW 17:50:05 10° SW 17:52:39 10° SW visible
